SCP
-0 -0 -0 -0 -0 -0 0 0 0 0 -0 0 -0 -0 -0 0 0 0 -0 -0 -0 0 0 0 0 0 0 0 0 0 0 0 0 0 0 0 0 0 0 0 0 0 0
-0 -0 -0 -0 -0 -0 -0 -0 -0 -0 -0 0 -0 0 0 -0 0 0 0 0 0 0 0 0 0 0 0 0 0 0 0 0 0 0 0 0 0 0 0 0 0 0 0
-0 -0 -0 -0 -0 -0 -0 -0 -0 -0 -0 -0 0 0 0 0 0 0 0 0 0 0 0 0 -0 0 0 0 0 0 0 0 0 0 0 0 0 0 0 0 0 0 0
-0 -0 -0 -0 -0 -0 -0 -0 -0 -0 -0 -0 -0 -0 -0 -0 -0 0 0 0 0 0 0 0 -0 0 0 0 0 0 0 0 0 0 0 0 0 0 0 0 0 0 0
-0 -0 -0 -0 -0 -0 -0 -0 -0 -0 -0 -0 -0 0 0 0 0 0 0 0 0 0 0 0 0 -0 0 0 0 1 0 0 0 0 0 0 0 0 0 0 0 0 0
-0 -0 -0 0 0 -0 -0 -0 -0 0 -0 -0 0 -0 -0 0 0 0 0 0 0 0 0 0 0 -0 0 0 0 0 1 0 0 0 0 0 0 0 0 0 0 0 0
0 0 0 0 0 -0 -0 0 0 0 -0 -1 -0 -1 -0 0 0 1 0 0 0 0 0 0 0 0 0 0 0 1 1 1 1 1 1 0 0 1 0 0 0 0 0
0 0 0 0 0 0 0 0 0 0 0 -0 -0 -0 0 0 1 0 0 0 0 0 0 0 0 0 0 0 0 0 1 1 1 1 1 1 1 1 0 0 0 0 0
0 0 0 0 0 0 0 0 0 0 0 0 1 0 0 0 0 1 1 0 0 0 0 0 1 0 0 0 0 0 0 1 1 1 1 1 1 1 1 1 1 0 -0
0 0 0 0 0 0 0 0 0 0 0 0 1 1 0 1 0 1 1 1 1 1 1 1 1 1 1 0 0 0 0 1 1 2 2 1 1 2 2 1 1 0 0
0 0 0 0 0 0 0 0 0 0 -0 0 1 1 1 0 0 0 1 1 1 1 2 2 1 1 0 0 0 0 0 1 1 2 1 1 1 1 1 0 0 0 0
0 0 0 0 0 0 1 1 -0 -1 -0 -0 0 1 1 1 1 1 1 1 2 2 2 1 0 0 0 0 -0 -0 0 0 1 1 0 0 0 1 1 1 0 0 0
0 0 0 0 0 0 0 -0 0 0 0 0 -0 0 1 1 1 1 2 2 2 2 1 1 0 0 0 -0 -0 0 0 0 0 0 0 0 1 1 0 0 0 0 0
0 0 0 0 0 1 1 1 1 0 0 1 1 0 0 1 1 1 2 3 3 2 1 0 0 0 -0 -0 0 0 0 0 0 0 0 0 0 0 0 0 0 0 0
0 0 1 0 0 1 1 2 1 1 1 1 1 1 1 1 1 1 1 2 2 2 1 1 0 0 0 0 0 0 0 0 0 0 0 0 0 0 0 0 0 0 0
0 0 0 0 0 1 1 1 1 1 1 1 0 1 1 1 1 1 1 1 1 1 0 0 0 0 0 0 0 0 0 0 0 0 0 0 0 0 0 0 0 0 0
0 0 0 0 0 0 0 0 0 0 0 1 1 1 1 1 1 1 1 1 0 0 0 0 0 0 0 0 0 0 0 0 0 0 0 0 0 0 0 0 0 0 0
0 0 0 0 0 -0 0 0 0 0 0 1 1 1 1 1 1 1 1 0 0 0 0 0 0 -0 0 0 0 0 0 0 0 0 0 0 0 0 0 0 0 0 0
0 0 0 -0 -0 -0 0 0 0 0 0 1 1 1 1 1 0 0 0 0 0 0 0 0 0 0 0 0 0 0 0 0 0 0 0 0 0 0 0 0 0 0 0
0 0 0 0 0 0 0 0 0 0 0 0 1 1 1 1 1 0 0 0 0 0 0 0 0 0 0 0 0 0 0 0 0 0 0 0 0 0 0 0 0 0 0
0 0 0 0 0 0 0 0 0 0 0 0 0 0 1 1 0 0 0 0 0 0 0 0 0 0 0 0 0 0 0 0 0 0 0 0 0 0 0 0 0 0 0
0 0 0 0 0 0 0 0 0 0 0 0 0 1 1 1 0 0 0 0 0 0 0 0 0 0 0 0 0 0 0 0 0 0 0 0 0 0 0 0 0 0 0
0 0 0 0 0 0 0 0 0 0 0 0 0 0 1 1 1 0 0 0 0 0 0 0 0 0 0 0 0 0 0 0 0 0 0 0 0 0 0 0 0 0 0
0 0 0 0 0 0 0 0 0 0 0 0 0 0 0 1 0 0 0 0 0 0 0 0 0 0 0 0 0 0 0 0 0 0 0 0 0 0 0 0 0 0 0
0 0 0 0 -0 -0 -0 0 0 0 0 0 0 0 0 0 0 0 0 0 0 0 0 0 0 0 0 0 0 0 0 0 0 0 0 0 0 0 0 0 0 0 0
0 0 0 -0 -0 -0 0 0 0 0 0 0 0 0 0 0 0 0 0 0 0 0 0 0 0 0 0 0 0 0 0 0 0 0 0 0 0 0 0 0 0 0 0
Wind_Speed_500mb
46 51 55 59 58 59 65 65 63 61 58 54 53 52 51 49 48 44 43 41 40 37 33 34 34 35 38 31 27 28 29 28 28 33 34 29 25 27 25 25 27 35 33
46 49 57 60 64 62 62 66 68 66 64 62 58 57 54 52 51 50 45 42 45 43 43 39 38 35 32 29 30 30 29 30 28 20 22 16 15 16 9 15 25 36 31
55 55 59 67 63 67 66 68 68 68 66 67 66 65 66 64 59 56 50 45 43 45 47 46 45 40 35 34 32 32 33 30 30 27 19 12 8 14 19 18 15 22 36
54 59 62 67 67 67 65 65 65 67 66 69 73 74 73 70 60 53 49 47 44 45 49 51 50 46 42 40 39 35 33 32 33 34 35 33 34 16 13 14 21 18 24
50 59 66 73 75 66 63 60 63 66 67 69 72 73 74 75 70 64 55 47 48 46 47 47 51 52 48 45 47 43 38 36 36 38 38 34 32 32 29 28 17 28 25
29 46 51 56 65 71 73 67 60 63 67 70 69 73 73 70 75 69 57 53 50 47 47 45 50 52 49 49 44 48 47 44 46 43 42 41 31 31 32 30 33 34 38
27 22 36 44 52 60 68 62 63 64 66 66 65 68 67 67 66 68 63 56 54 51 50 45 48 47 44 41 42 46 50 54 50 48 48 46 42 40 40 40 34 29 32
36 9 17 24 31 36 43 47 55 58 65 62 67 72 67 66 63 66 64 59 56 49 45 47 46 46 47 44 44 46 47 54 56 52 48 48 47 45 44 46 40 41 30
35 28 11 4 13 17 19 23 34 31 38 50 54 67 73 70 62 57 60 59 58 51 45 52 52 52 50 48 49 50 52 55 59 58 56 53 51 51 46 45 42 41 35
33 32 29 22 17 13 8 9 9 4 14 34 46 59 70 72 70 63 60 56 57 50 50 49 55 58 54 54 51 55 57 61 68 67 59 59 54 48 47 48 46 44 42
38 41 40 37 33 30 25 27 19 16 20 18 28 39 60 66 72 69 63 57 57 55 49 46 47 50 48 48 53 68 74 71 77 79 73 63 57 47 40 39 42 47 43
25 22 19 20 26 21 32 27 19 26 34 37 28 34 46 62 68 66 60 64 62 59 55 46 39 45 55 57 72 84 71 70 71 74 79 65 57 48 40 38 39 41 40
20 24 29 36 39 38 31 31 34 35 28 23 23 27 31 42 56 56 61 61 62 60 61 52 39 49 63 78 81 60 56 51 48 52 55 53 39 34 29 26 27 30 33
20 24 28 31 31 34 38 34 31 34 29 22 23 24 28 39 47 54 62 64 58 58 62 60 89 80 118 72 52 40 28 33 34 21 26 34 29 18 18 17 18 19 26
24 29 32 33 36 38 37 33 31 31 28 23 25 26 32 42 51 54 61 60 62 64 70 71 64 71 60 46 35 24 17 24 26 32 16 28 21 21 29 28 22 17 16
24 27 28 31 34 37 38 37 33 30 30 36 40 37 33 35 42 46 49 44 46 53 51 45 56 43 33 28 24 14 18 22 20 19 10 11 16 17 20 22 22 15 13
21 24 30 35 38 41 43 45 45 38 30 28 31 30 31 34 37 33 37 42 43 45 53 50 45 40 34 32 26 22 23 20 16 14 8 8 13 17 15 15 14 13 9
27 34 40 42 41 41 40 40 42 46 46 32 28 32 32 29 38 41 48 44 51 51 46 47 48 40 34 32 34 33 32 30 27 24 19 13 13 13 11 8 8 7 8
31 38 42 45 45 45 45 45 41 35 38 46 42 34 35 34 55 63 50 46 45 41 46 49 41 34 26 26 29 26 24 24 22 20 17 13 10 8 7 6 8 12 15
35 42 47 50 55 59 64 68 66 60 51 48 48 44 41 41 58 61 58 51 49 49 48 40 35 28 29 28 27 24 24 24 21 18 15 12 10 8 5 6 6 11 14
41 48 55 59 63 67 69 73 74 71 66 56 51 54 51 52 56 65 62 49 55 57 49 45 39 31 28 28 25 24 25 24 21 14 9 6 6 5 4 3 5 6 6
44 51 55 56 53 53 62 68 77 80 69 62 50 59 63 64 56 60 52 52 60 60 60 50 41 32 32 30 28 25 21 18 14 12 7 6 8 10 14 15 16 16 14
40 44 44 48 51 62 68 82 89 85 74 59 44 52 56 60 57 57 58 59 60 66 62 56 46 43 41 38 30 21 13 11 11 15 17 20 21 24 23 17 11 10 7
31 32 35 43 58 73 76 78 85 73 69 49 43 46 53 53 50 56 66 63 68 69 57 49 50 45 41 35 26 15 14 15 17 24 24 21 17 15 13 9 8 10 12
19 24 36 38 53 61 60 54 54 37 22 11 25 37 39 46 58 64 66 72 68 52 49 50 49 46 38 29 22 21 20 20 20 20 15 11 9 11 11 12 16 16 16
10 22 29 36 50 60 65 69 44 33 30 58 57 59 58 56 47 51 36 47 37 36 32 33 31 33 27 23 25 22 18 17 15 14 10 7 5 4 3 10 15 15 16
Wind_Direction_500mb
216 216 215 217 218 224 226 225 226 226 227 226 227 229 231 231 233 237 242 241 238 242 251 255 257 271 284 267 278 289 284 279 302 276 279 282 271 277 284 268 250 246 238
221 219 219 218 221 219 222 227 228 230 231 232 233 236 239 241 242 244 248 250 247 245 252 260 257 272 280 265 275 283 284 283 297 282 282 288 282 269 288 287 272 245 240
227 223 221 224 224 225 224 226 228 232 235 238 239 240 243 246 248 249 251 250 252 250 252 257 254 263 272 262 276 278 283 284 286 288 272 286 279 306 299 306 296 243 238
233 230 228 227 232 230 229 231 233 236 237 241 242 244 246 248 252 252 255 258 259 262 261 253 248 256 266 262 270 275 281 274 280 289 278 274 268 286 298 302 307 286 259
241 234 226 232 236 237 237 236 236 238 241 243 244 248 247 252 252 254 255 257 259 265 267 250 240 249 261 269 267 269 277 276 276 280 286 280 274 271 266 287 290 308 303
276 242 233 234 239 233 237 240 239 240 240 245 248 250 252 254 253 253 254 252 255 259 260 245 241 247 264 272 273 267 271 275 274 275 276 273 268 268 271 273 291 295 298
334 257 237 227 231 231 234 237 247 249 246 243 248 252 254 254 256 256 256 254 254 256 257 245 241 249 264 268 272 274 269 270 273 277 278 278 268 265 267 273 279 284 292
10 344 226 233 246 240 242 243 249 253 261 265 260 259 256 253 256 256 253 254 254 257 257 243 241 254 264 265 269 275 274 267 270 267 267 276 271 268 271 268 273 282 283
30 42 68 200 226 238 242 242 245 249 255 268 268 263 260 255 254 259 255 255 254 255 255 240 242 252 260 272 277 278 281 278 275 270 263 269 271 266 267 263 263 270 276
49 59 71 72 74 80 126 171 213 219 270 267 271 274 267 261 255 252 252 251 252 251 252 246 245 250 255 267 277 280 279 281 277 271 267 266 267 258 263 262 264 263 260
67 74 78 75 70 66 66 60 45 21 356 316 287 279 273 267 260 254 250 249 250 251 249 252 256 262 268 269 282 290 287 283 274 274 266 260 259 257 250 260 265 266 261
29 31 24 2 9 7 10 26 20 19 343 334 301 289 280 272 262 256 252 247 242 242 243 247 256 273 281 296 305 299 293 288 280 266 257 250 241 243 243 253 263 266 254
4 14 20 16 19 13 10 352 313 344 349 346 317 290 275 263 260 257 252 249 245 240 236 230 242 273 299 301 306 300 300 300 285 280 254 240 223 229 238 254 263 253 237
20 15 13 8 4 7 6 2 351 344 336 327 303 288 276 270 264 257 249 244 243 238 243 249 258 268 263 286 292 297 318 312 281 213 199 195 200 230 252 264 257 236 224
32 27 19 7 359 355 355 353 345 345 345 333 321 304 277 268 264 260 252 247 248 254 262 258 240 232 233 266 277 292 308 269 263 261 243 205 235 271 273 246 209 213 231
42 29 16 3 353 346 338 332 331 329 321 319 315 305 290 276 264 259 256 251 250 246 231 214 216 226 236 247 252 243 253 260 263 267 245 227 217 217 208 212 208 226 251
39 20 6 356 348 340 332 326 321 316 317 317 312 306 294 280 266 250 245 238 233 221 216 236 237 234 235 248 242 239 243 240 226 219 233 199 204 216 218 209 205 212 222
10 2 355 350 347 343 337 328 319 312 302 299 296 292 288 272 252 240 216 219 218 228 231 222 222 218 229 240 240 239 234 236 234 234 219 207 189 165 158 164 175 203 239
359 356 351 346 341 334 328 326 327 309 288 290 285 278 271 260 232 211 213 235 225 221 218 222 221 216 221 210 204 206 212 210 202 191 182 179 180 182 180 218 255 258 255
351 346 341 334 328 322 317 314 310 304 299 277 267 262 258 247 225 226 230 237 234 217 203 194 192 184 176 186 182 177 192 186 180 175 174 185 194 188 186 194 220 254 261
344 337 329 324 320 317 314 308 303 297 300 284 264 255 246 242 238 233 250 237 211 197 186 179 174 170 162 165 159 164 179 174 167 171 171 200 224 215 202 229 228 223 255
336 331 328 329 329 327 321 311 305 306 296 286 263 244 246 240 233 236 235 215 200 193 178 172 164 159 153 153 153 154 159 151 165 180 160 154 151 135 118 115 114 107 95
338 337 341 340 343 336 331 323 314 308 301 275 254 242 248 233 233 234 217 200 200 177 166 162 156 150 142 140 142 146 156 166 170 135 115 115 119 110 103 97 88 69 50
338 345 353 352 347 346 341 329 320 309 298 267 237 229 227 218 231 215 197 189 187 173 164 156 156 154 150 159 158 160 153 150 138 128 122 111 102 91 73 51 3 341 337
348 1 4 2 7 4 11 360 353 4 344 224 193 217 219 223 221 208 193 186 180 161 160 163 165 163 167 162 165 152 142 139 132 122 126 141 121 93 72 35 359 348 346
356 10 18 29 36 39 35 50 52 74 92 118 127 111 105 107 100 102 102 112 122 126 151 159 162 165 169 164 155 144 135 134 124 114 135 137 135 91 21 8 350 342 339
Wind_Speed_850mb
46 51 55 59 58 59 65 65 63 61 58 54 53 52 51 49 48 44 43 41 40 37 33 34 34 35 38 31 27 28 29 28 28 33 34 29 25 27 25 25 27 35 33
46 49 57 60 64 62 62 66 68 66 64 62 58 57 54 52 51 50 45 42 45 43 43 39 38 35 32 29 30 30 29 30 28 20 22 16 15 16 9 15 25 36 31
55 55 59 67 63 67 66 68 68 68 66 67 66 65 66 64 59 56 50 45 43 45 47 46 45 40 35 34 32 32 33 30 30 27 19 12 8 14 19 18 15 22 36
54 59 62 67 67 67 65 65 65 67 66 69 73 74 73 70 60 53 49 47 44 45 49 51 50 46 42 40 39 35 33 32 33 34 35 33 34 16 13 14 21 18 24
50 59 66 73 75 66 63 60 63 66 67 69 72 73 74 75 70 64 55 47 48 46 47 47 51 52 48 45 47 43 38 36 36 38 38 34 32 32 29 28 17 28 25
29 46 51 56 65 71 73 67 60 63 67 70 69 73 73 70 75 69 57 53 50 47 47 45 50 52 49 49 44 48 47 44 46 43 42 41 31 31 32 30 33 34 38
27 22 36 44 52 60 68 62 63 64 66 66 65 68 67 67 66 68 63 56 54 51 50 45 48 47 44 41 42 46 50 54 50 48 48 46 42 40 40 40 34 29 32
36 9 17 24 31 36 43 47 55 58 65 62 67 72 67 66 63 66 64 59 56 49 45 47 46 46 47 44 44 46 47 54 56 52 48 48 47 45 44 46 40 41 30
35 28 11 4 13 17 19 23 34 31 38 50 54 67 73 70 62 57 60 59 58 51 45 52 52 52 50 48 49 50 52 55 59 58 56 53 51 51 46 45 42 41 35
33 32 29 22 17 13 8 9 9 4 14 34 46 59 70 72 70 63 60 56 57 50 50 49 55 58 54 54 51 55 57 61 68 67 59 59 54 48 47 48 46 44 42
38 41 40 37 33 30 25 27 19 16 20 18 28 39 60 66 72 69 63 57 57 55 49 46 47 50 48 48 53 68 74 71 77 79 73 63 57 47 40 39 42 47 43
25 22 19 20 26 21 32 27 19 26 34 37 28 34 46 62 68 66 60 64 62 59 55 46 39 45 55 57 72 84 71 70 71 74 79 65 57 48 40 38 39 41 40
20 24 29 36 39 38 31 31 34 35 28 23 23 27 31 42 56 56 61 61 62 60 61 52 39 49 63 78 81 60 56 51 48 52 55 53 39 34 29 26 27 30 33
20 24 28 31 31 34 38 34 31 34 29 22 23 24 28 39 47 54 62 64 58 58 62 60 89 80 118 72 52 40 28 33 34 21 26 34 29 18 18 17 18 19 26
24 29 32 33 36 38 37 33 31 31 28 23 25 26 32 42 51 54 61 60 62 64 70 71 64 71 60 46 35 24 17 24 26 32 16 28 21 21 29 28 22 17 16
24 27 28 31 34 37 38 37 33 30 30 36 40 37 33 35 42 46 49 44 46 53 51 45 56 43 33 28 24 14 18 22 20 19 10 11 16 17 20 22 22 15 13
21 24 30 35 38 41 43 45 45 38 30 28 31 30 31 34 37 33 37 42 43 45 53 50 45 40 34 32 26 22 23 20 16 14 8 8 13 17 15 15 14 13 9
27 34 40 42 41 41 40 40 42 46 46 32 28 32 32 29 38 41 48 44 51 51 46 47 48 40 34 32 34 33 32 30 27 24 19 13 13 13 11 8 8 7 8
31 38 42 45 45 45 45 45 41 35 38 46 42 34 35 34 55 63 50 46 45 41 46 49 41 34 26 26 29 26 24 24 22 20 17 13 10 8 7 6 8 12 15
35 42 47 50 55 59 64 68 66 60 51 48 48 44 41 41 58 61 58 51 49 49 48 40 35 28 29 28 27 24 24 24 21 18 15 12 10 8 5 6 6 11 14
41 48 55 59 63 67 69 73 74 71 66 56 51 54 51 52 56 65 62 49 55 57 49 45 39 31 28 28 25 24 25 24 21 14 9 6 6 5 4 3 5 6 6
44 51 55 56 53 53 62 68 77 80 69 62 50 59 63 64 56 60 52 52 60 60 60 50 41 32 32 30 28 25 21 18 14 12 7 6 8 10 14 15 16 16 14
40 44 44 48 51 62 68 82 89 85 74 59 44 52 56 60 57 57 58 59 60 66 62 56 46 43 41 38 30 21 13 11 11 15 17 20 21 24 23 17 11 10 7
31 32 35 43 58 73 76 78 85 73 69 49 43 46 53 53 50 56 66 63 68 69 57 49 50 45 41 35 26 15 14 15 17 24 24 21 17 15 13 9 8 10 12
19 24 36 38 53 61 60 54 54 37 22 11 25 37 39 46 58 64 66 72 68 52 49 50 49 46 38 29 22 21 20 20 20 20 15 11 9 11 11 12 16 16 16
10 22 29 36 50 60 65 69 44 33 30 58 57 59 58 56 47 51 36 47 37 36 32 33 31 33 27 23 25 22 18 17 15 14 10 7 5 4 3 10 15 15 16
Wind_Direction_850mb
216 216 215 217 218 224 226 225 226 226 227 226 227 229 231 231 233 237 242 241 238 242 251 255 257 271 284 267 278 289 284 279 302 276 279 282 271 277 284 268 250 246 238
221 219 219 218 221 219 222 227 228 230 231 232 233 236 239 241 242 244 248 250 247 245 252 260 257 272 280 265 275 283 284 283 297 282 282 288 282 269 288 287 272 245 240
227 223 221 224 224 225 224 226 228 232 235 238 239 240 243 246 248 249 251 250 252 250 252 257 254 263 272 262 276 278 283 284 286 288 272 286 279 306 299 306 296 243 238
233 230 228 227 232 230 229 231 233 236 237 241 242 244 246 248 252 252 255 258 259 262 261 253 248 256 266 262 270 275 281 274 280 289 278 274 268 286 298 302 307 286 259
241 234 226 232 236 237 237 236 236 238 241 243 244 248 247 252 252 254 255 257 259 265 267 250 240 249 261 269 267 269 277 276 276 280 286 280 274 271 266 287 290 308 303
276 242 233 234 239 233 237 240 239 240 240 245 248 250 252 254 253 253 254 252 255 259 260 245 241 247 264 272 273 267 271 275 274 275 276 273 268 268 271 273 291 295 298
334 257 237 227 231 231 234 237 247 249 246 243 248 252 254 254 256 256 256 254 254 256 257 245 241 249 264 268 272 274 269 270 273 277 278 278 268 265 267 273 279 284 292
10 344 226 233 246 240 242 243 249 253 261 265 260 259 256 253 256 256 253 254 254 257 257 243 241 254 264 265 269 275 274 267 270 267 267 276 271 268 271 268 273 282 283
30 42 68 200 226 238 242 242 245 249 255 268 268 263 260 255 254 259 255 255 254 255 255 240 242 252 260 272 277 278 281 278 275 270 263 269 271 266 267 263 263 270 276
49 59 71 72 74 80 126 171 213 219 270 267 271 274 267 261 255 252 252 251 252 251 252 246 245 250 255 267 277 280 279 281 277 271 267 266 267 258 263 262 264 263 260
67 74 78 75 70 66 66 60 45 21 356 316 287 279 273 267 260 254 250 249 250 251 249 252 256 262 268 269 282 290 287 283 274 274 266 260 259 257 250 260 265 266 261
29 31 24 2 9 7 10 26 20 19 343 334 301 289 280 272 262 256 252 247 242 242 243 247 256 273 281 296 305 299 293 288 280 266 257 250 241 243 243 253 263 266 254
4 14 20 16 19 13 10 352 313 344 349 346 317 290 275 263 260 257 252 249 245 240 236 230 242 273 299 301 306 300 300 300 285 280 254 240 223 229 238 254 263 253 237
20 15 13 8 4 7 6 2 351 344 336 327 303 288 276 270 264 257 249 244 243 238 243 249 258 268 263 286 292 297 318 312 281 213 199 195 200 230 252 264 257 236 224
32 27 19 7 359 355 355 353 345 345 345 333 321 304 277 268 264 260 252 247 248 254 262 258 240 232 233 266 277 292 308 269 263 261 243 205 235 271 273 246 209 213 231
42 29 16 3 353 346 338 332 331 329 321 319 315 305 290 276 264 259 256 251 250 246 231 214 216 226 236 247 252 243 253 260 263 267 245 227 217 217 208 212 208 226 251
39 20 6 356 348 340 332 326 321 316 317 317 312 306 294 280 266 250 245 238 233 221 216 236 237 234 235 248 242 239 243 240 226 219 233 199 204 216 218 209 205 212 222
10 2 355 350 347 343 337 328 319 312 302 299 296 292 288 272 252 240 216 219 218 228 231 222 222 218 229 240 240 239 234 236 234 234 219 207 189 165 158 164 175 203 239
359 356 351 346 341 334 328 326 327 309 288 290 285 278 271 260 232 211 213 235 225 221 218 222 221 216 221 210 204 206 212 210 202 191 182 179 180 182 180 218 255 258 255
351 346 341 334 328 322 317 314 310 304 299 277 267 262 258 247 225 226 230 237 234 217 203 194 192 184 176 186 182 177 192 186 180 175 174 185 194 188 186 194 220 254 261
344 337 329 324 320 317 314 308 303 297 300 284 264 255 246 242 238 233 250 237 211 197 186 179 174 170 162 165 159 164 179 174 167 171 171 200 224 215 202 229 228 223 255
336 331 328 329 329 327 321 311 305 306 296 286 263 244 246 240 233 236 235 215 200 193 178 172 164 159 153 153 153 154 159 151 165 180 160 154 151 135 118 115 114 107 95
338 337 341 340 343 336 331 323 314 308 301 275 254 242 248 233 233 234 217 200 200 177 166 162 156 150 142 140 142 146 156 166 170 135 115 115 119 110 103 97 88 69 50
338 345 353 352 347 346 341 329 320 309 298 267 237 229 227 218 231 215 197 189 187 173 164 156 156 154 150 159 158 160 153 150 138 128 122 111 102 91 73 51 3 341 337
348 1 4 2 7 4 11 360 353 4 344 224 193 217 219 223 221 208 193 186 180 161 160 163 165 163 167 162 165 152 142 139 132 122 126 141 121 93 72 35 359 348 346
356 10 18 29 36 39 35 50 52 74 92 118 127 111 105 107 100 102 102 112 122 126 151 159 162 165 169 164 155 144 135 134 124 114 135 137 135 91 21 8 350 342 339